Hanjin Chongqing — 3EPJ2 — position and weather

sailwx.info

Track history (hours):
 
Tides and Currents Weather Stations Pressure Air Temp Water Temp Dewpoint Dewpoint Depression Visibility Wind Speed Wind Dir Waves Ship Positions

Hanjin Chongqing

Last reported at 2014-Sep-21 13:33 UTC. Time now 2014-Sep-21 14:08 UTC.
Position N 33°45' W 118°16'.

Length 304 m; draft 12 m.

Type: Cargo ship. MMSI: 353957976.

Date/timePositionNaut miles runAvg speedWind from/ knotsBaromVisibWave heightAir tempDewpointWater temp
2014-Sep-21 13:33N 33°45' W 118°16'0 0.0
2014-Sep-21 12:33N 33°46' W 118°16'0 0.1
2014-Sep-21 11:33N 33°45' W 118°16'0 0.1
2014-Sep-21 10:33N 33°45' W 118°16'0 0.0
2014-Sep-21 09:27N 33°45' W 118°16'0 0.0
2014-Sep-21 08:33N 33°45' W 118°16'0 0.0
2014-Sep-21 07:33N 33°45' W 118°16'0 0.0
2014-Sep-21 06:33N 33°45' W 118°16'0 0.0
2014-Sep-21 05:30N 33°45' W 118°16'0 0.0
2014-Sep-21 04:33N 33°45' W 118°16'0 0.0
2014-Sep-21 03:33N 33°45' W 118°16'0 0.0
2014-Sep-21 02:33N 33°45' W 118°16'0 0.0
2014-Sep-21 01:33N 33°45' W 118°16'0 0.0
2014-Sep-21 00:33N 33°45' W 118°16'0 0.0
2014-Sep-20 23:33N 33°45' W 118°16'0 0.0
2014-Sep-20 22:33N 33°45' W 118°16'0 0.0
2014-Sep-20 21:33N 33°45' W 118°16'0 0.0
2014-Sep-20 20:33N 33°45' W 118°16'0 0.0
2014-Sep-20 19:33N 33°45' W 118°16'0 0.0
2014-Sep-20 18:33N 33°45' W 118°16'0 0.0
2014-Sep-20 17:33N 33°45' W 118°16'0 0.0
2014-Sep-20 16:33N 33°45' W 118°16'0 0.0
2014-Sep-20 15:33N 33°45' W 118°16'0 0.0
2014-Sep-20 14:33N 33°45' W 118°16'0 0.0
2014-Sep-20 13:33N 33°45' W 118°16'6 5.0
2014-Sep-20 12:26N 33°40' W 118°13'7 6.2
2014-Sep-20 11:22N 33°36' W 118°20'16 8.5
2014-Sep-20 09:26N 33°44' W 118°38'8 8.8
2014-Sep-20 08:33N 33°48' W 118°46'11 9.1
2014-Sep-20 07:24N 33°53' W 118°57'1513.6
2014-Sep-20 06:16N 34°00' W 119°13'1014.4
2014-Sep-20 05:33N 34°04' W 119°24'2014.4
2014-Sep-20 04:08N 34°10' W 119°48'814.3
2014-Sep-20 03:33N 34°12' W 119°58'1414.4
2014-Sep-20 02:33N 34°16' W 120°15'1615.3
2014-Sep-20 01:32N 34°20' W 120°33'7618.8
2014-Sep-19 21:29N 34°56' W 121°54'1819.2
2014-Sep-19 20:33N 35°06' W 122°13'1918.9
2014-Sep-19 19:33N 35°16' W 122°32'1918.7
2014-Sep-19 18:33N 35°26' W 122°51'1918.4
2014-Sep-19 17:33N 35°36' W 123°11'1818.6
2014-Sep-19 16:33N 35°46' W 123°30'1918.7
2014-Sep-19 15:33N 35°56' W 123°49'  
Track history (hours):
 
Tides and Currents Weather Stations Pressure Air Temp Water Temp Dewpoint Dewpoint Depression Visibility Wind Speed Wind Dir Waves Ship Positions

Hanjin Chongqing

Last reported at 2014-Sep-21 13:33 UTC. Time now 2014-Sep-21 14:08 UTC.
Position N 33°45' W 118°16'.

Length 304 m; draft 12 m.

Type: Cargo ship. MMSI: 353957976.

Date/timePositionNaut miles runAvg speedWind from/ knotsBaromVisibWave heightAir tempDewpointWater temp
2014-Sep-21 13:33N 33°45' W 118°16'0 0.0
2014-Sep-21 12:33N 33°46' W 118°16'0 0.1
2014-Sep-21 11:33N 33°45' W 118°16'0 0.1
2014-Sep-21 10:33N 33°45' W 118°16'0 0.0
2014-Sep-21 09:27N 33°45' W 118°16'0 0.0
2014-Sep-21 08:33N 33°45' W 118°16'0 0.0
2014-Sep-21 07:33N 33°45' W 118°16'0 0.0
2014-Sep-21 06:33N 33°45' W 118°16'0 0.0
2014-Sep-21 05:30N 33°45' W 118°16'0 0.0
2014-Sep-21 04:33N 33°45' W 118°16'0 0.0
2014-Sep-21 03:33N 33°45' W 118°16'0 0.0
2014-Sep-21 02:33N 33°45' W 118°16'0 0.0
2014-Sep-21 01:33N 33°45' W 118°16'0 0.0
2014-Sep-21 00:33N 33°45' W 118°16'0 0.0
2014-Sep-20 23:33N 33°45' W 118°16'0 0.0
2014-Sep-20 22:33N 33°45' W 118°16'0 0.0
2014-Sep-20 21:33N 33°45' W 118°16'0 0.0
2014-Sep-20 20:33N 33°45' W 118°16'0 0.0
2014-Sep-20 19:33N 33°45' W 118°16'0 0.0
2014-Sep-20 18:33N 33°45' W 118°16'0 0.0
2014-Sep-20 17:33N 33°45' W 118°16'0 0.0
2014-Sep-20 16:33N 33°45' W 118°16'0 0.0
2014-Sep-20 15:33N 33°45' W 118°16'0 0.0
2014-Sep-20 14:33N 33°45' W 118°16'0 0.0
2014-Sep-20 13:33N 33°45' W 118°16'6 5.0
2014-Sep-20 12:26N 33°40' W 118°13'7 6.2
2014-Sep-20 11:22N 33°36' W 118°20'16 8.5
2014-Sep-20 09:26N 33°44' W 118°38'8 8.8
2014-Sep-20 08:33N 33°48' W 118°46'11 9.1
2014-Sep-20 07:24N 33°53' W 118°57'1513.6
2014-Sep-20 06:16N 34°00' W 119°13'1014.4
2014-Sep-20 05:33N 34°04' W 119°24'2014.4
2014-Sep-20 04:08N 34°10' W 119°48'814.3
2014-Sep-20 03:33N 34°12' W 119°58'1414.4
2014-Sep-20 02:33N 34°16' W 120°15'1615.3
2014-Sep-20 01:32N 34°20' W 120°33'7618.8
2014-Sep-19 21:29N 34°56' W 121°54'1819.2
2014-Sep-19 20:33N 35°06' W 122°13'1918.9
2014-Sep-19 19:33N 35°16' W 122°32'1918.7
2014-Sep-19 18:33N 35°26' W 122°51'1918.4
2014-Sep-19 17:33N 35°36' W 123°11'1818.6
2014-Sep-19 16:33N 35°46' W 123°30'1918.7
2014-Sep-19 15:33N 35°56' W 123°49'  

Dump ship's entire track history